Radiation Dose at Monitoring Post of Fukushima Daini Nuclear Power Station
Date,Time,MP-1(microSv/h),MP-2(microSv/h),MP-3(microSv/h),MP-4(microSv/h),MP-5(microSv/h),MP-6(microSv/h),MP-7(microSv/h),Wind Direction,Wind Velocity(m/s),Rain
2017/09/20,00:00,0.343,0.213,0.349,0.324,0.318,0.171,0.103,west-northwest,2.8,No
2017/09/20,00:10,0.344,0.213,0.345,0.328,0.314,0.171,0.104,west,3.4,No
2017/09/20,00:20,0.340,0.213,0.346,0.327,0.315,0.171,0.103,west-northwest,3.0,No
2017/09/20,00:30,0.344,0.212,0.347,0.326,0.317,0.172,0.103,northwest,2.3,No
2017/09/20,00:40,0.341,0.213,0.346,0.327,0.314,0.172,0.104,west,2.3,No
2017/09/20,00:50,0.343,0.210,0.347,0.324,0.318,0.171,0.104,west-southwest,2.2,No
2017/09/20,01:00,0.343,0.212,0.345,0.327,0.317,0.173,0.104,west,1.8,No
2017/09/20,01:10,0.340,0.212,0.348,0.326,0.314,0.172,0.103,west,1.6,No
2017/09/20,01:20,0.344,0.213,0.346,0.325,0.318,0.172,0.103,northwest,0.6,No
2017/09/20,01:30,0.341,0.212,0.346,0.327,0.314,0.171,0.104,north,2.2,No
2017/09/20,01:40,0.343,0.212,0.347,0.326,0.314,0.173,0.103,south,1.1,No
2017/09/20,01:50,0.343,0.212,0.344,0.327,0.317,0.172,0.103,north-northeast,2.8,No
2017/09/20,02:00,0.343,0.213,0.348,0.327,0.314,0.173,0.103,east-northeast,1.9,No
2017/09/20,02:10,0.344,0.212,0.345,0.325,0.318,0.172,0.103,northeast,1.4,No
2017/09/20,02:20,0.341,0.213,0.347,0.327,0.314,0.172,0.103,-,CALM,No
2017/09/20,02:30,0.343,0.213,0.348,0.324,0.314,0.172,0.103,-,CALM,No
2017/09/20,02:40,0.342,0.212,0.346,0.326,0.318,0.172,0.103,south-southeast,0.8,No
2017/09/20,02:50,0.341,0.213,0.349,0.328,0.315,0.172,0.103,north-northeast,1.8,No
2017/09/20,03:00,0.346,0.212,0.347,0.325,0.317,0.172,0.103,north-northwest,0.6,No
2017/09/20,03:10,0.341,0.213,0.347,0.330,0.317,0.172,0.104,west-southwest,1.6,No
2017/09/20,03:20,0.343,0.213,0.348,0.325,0.314,0.172,0.102,south,1.6,No
2017/09/20,03:30,0.344,0.213,0.346,0.328,0.319,0.173,0.104,south,1.2,No
2017/09/20,03:40,0.342,0.212,0.349,0.327,0.314,0.172,0.103,south-southwest,2.2,No
2017/09/20,03:50,0.345,0.214,0.344,0.325,0.316,0.171,0.104,south-southwest,2.1,No
2017/09/20,04:00,0.341,0.212,0.349,0.329,0.317,0.172,0.103,south-southwest,1.6,No
2017/09/20,04:10,0.345,0.213,0.347,0.324,0.314,0.171,0.104,south-southwest,3.0,No
2017/09/20,04:20,0.343,0.212,0.346,0.327,0.318,0.172,0.103,southwest,1.2,No
2017/09/20,04:30,0.341,0.212,0.349,0.327,0.315,0.172,0.103,south-southwest,1.1,No
2017/09/20,04:40,0.343,0.213,0.344,0.325,0.313,0.172,0.104,-,CALM,No
2017/09/20,04:50,0.341,0.212,0.348,0.329,0.317,0.172,0.104,north-northwest,0.8,No
2017/09/20,05:00,0.344,0.214,0.347,0.325,0.314,0.172,0.103,north,1.4,No
2017/09/20,05:10,0.342,0.212,0.346,0.328,0.316,0.173,0.103,north,1.9,No
2017/09/20,05:20,0.343,0.213,0.348,0.326,0.315,0.171,0.104,north,1.9,No
2017/09/20,05:30,0.344,0.212,0.346,0.326,0.313,0.173,0.104,north,2.7,No
2017/09/20,05:40,0.341,0.213,0.350,0.328,0.319,0.171,0.104,north,3.3,No
2017/09/20,05:50,0.344,0.212,0.348,0.325,0.315,0.172,0.104,north-northwest,2.5,No
2017/09/20,06:00,0.342,0.214,0.347,0.328,0.316,0.172,0.103,north,2.8,No
2017/09/20,06:10,0.343,0.213,0.348,0.325,0.315,0.172,0.103,north,2.2,No
2017/09/20,06:20,0.345,0.214,0.345,0.327,0.315,0.172,0.103,north-northeast,1.6,No
2017/09/20,06:30,0.340,0.214,0.348,0.327,0.318,0.172,0.104,north-northwest,0.9,No
2017/09/20,06:40,0.346,0.213,0.346,0.326,0.314,0.173,0.103,northwest,1.2,No
2017/09/20,06:50,0.342,0.213,0.349,0.327,0.315,0.172,0.103,north,1.3,No
2017/09/20,07:00,0.342,0.212,0.348,0.324,0.317,0.172,0.103,-,CALM,No
2017/09/20,07:10,0.345,0.214,0.346,0.328,0.314,0.173,0.104,west-southwest,1.9,No
2017/09/20,07:20,0.339,0.212,0.348,0.327,0.317,0.172,0.104,west-northwest,1.1,No
2017/09/20,07:30,0.344,0.214,0.345,0.324,0.316,0.173,0.104,west-northwest,2.5,No
2017/09/20,07:40,0.342,0.213,0.348,0.328,0.314,0.171,0.104,west,3.1,No
2017/09/20,07:50,0.341,0.211,0.347,0.325,0.317,0.172,0.103,west,2.9,No
2017/09/20,08:00,0.343,0.214,0.344,0.325,0.316,0.171,0.102,west,3.5,No
2017/09/20,08:10,0.341,0.212,0.348,0.327,0.312,0.172,0.103,west-southwest,2.7,No
2017/09/20,08:20,0.341,0.211,0.346,0.324,0.314,0.171,0.103,west,0.5,No
2017/09/20,08:30,0.345,0.215,0.344,0.325,0.318,0.172,0.104,-,CALM,No
2017/09/20,08:40,0.343,0.214,0.350,0.327,0.317,0.172,0.102,-,CALM,No
2017/09/20,08:50,0.339,0.212,0.346,0.326,0.313,0.172,0.102,southwest,1.4,No
2017/09/20,09:00,0.344,0.212,0.344,0.323,0.314,0.172,0.101,west-southwest,1.7,No
2017/09/20,09:10,0.346,0.214,0.349,0.326,0.316,0.172,0.102,west-southwest,1.6,No
2017/09/20,09:20,0.341,0.212,0.347,0.330,0.315,0.171,0.104,west-southwest,1.1,No
2017/09/20,09:30,0.340,0.211,0.345,0.325,0.314,0.172,0.102,south,1.6,No
2017/09/20,09:40,0.345,0.212,0.346,0.322,0.311,0.173,0.101,south,2.8,No
2017/09/20,09:50,0.343,0.215,0.349,0.327,0.318,0.173,0.103,south-southwest,2.1,No
2017/09/20,10:00,0.341,0.213,0.347,0.328,0.318,0.171,0.102,south-southwest,3.9,No
2017/09/20,10:10,0.340,0.213,0.345,0.325,0.316,0.171,0.103,south,4.0,No
2017/09/20,10:20,0.340,0.212,0.345,0.326,0.315,0.172,0.102,south,4.2,No
2017/09/20,10:30,0.337,0.210,0.350,0.324,0.314,0.172,0.102,south,5.3,No
2017/09/20,10:40,0.338,0.212,0.349,0.323,0.314,0.173,0.102,south,6.1,No
2017/09/20,10:50,0.342,0.211,0.344,0.324,0.312,0.173,0.101,south,6.2,No
2017/09/20,11:00,0.346,0.211,0.345,0.325,0.313,0.173,0.103,south,5.9,No
2017/09/20,11:10,0.344,0.213,0.352,0.329,0.317,0.172,0.104,south,4.5,No
2017/09/20,11:20,0.343,0.214,0.348,0.328,0.318,0.173,0.104,south,6.4,No
2017/09/20,11:30,0.341,0.214,0.346,0.328,0.317,0.173,0.103,south,4.8,No
2017/09/20,11:40,0.341,0.214,0.345,0.326,0.315,0.173,0.102,south,4.7,No
2017/09/20,11:50,0.340,0.214,0.346,0.323,0.315,0.172,0.103,south,6.2,No
2017/09/20,12:00,0.338,0.212,0.345,0.324,0.312,0.175,0.103,south,5.9,No
2017/09/20,12:10,0.345,0.211,0.350,0.328,0.313,0.173,0.103,south,6.7,No
2017/09/20,12:20,0.346,0.213,0.347,0.329,0.318,0.174,0.103,south,7.6,No
2017/09/20,12:30,0.342,0.214,0.347,0.326,0.319,0.172,0.103,south,8.8,No
2017/09/20,12:40,0.341,0.214,0.345,0.325,0.315,0.172,0.102,south,9.3,No
2017/09/20,12:50,0.347,0.212,0.349,0.328,0.315,0.174,0.104,south,9.5,No
2017/09/20,13:00,0.345,0.212,0.349,0.330,0.318,0.172,0.103,south,7.7,No
2017/09/20,13:10,0.342,0.215,0.346,0.327,0.318,0.172,0.103,south,8.7,No
2017/09/20,13:20,0.342,0.215,0.349,0.325,0.313,0.173,0.101,south,8.4,No
2017/09/20,13:30,0.345,0.212,0.350,0.329,0.315,0.173,0.103,south-southwest,8.2,No
2017/09/20,13:40,0.345,0.212,0.346,0.329,0.319,0.173,0.103,south-southwest,8.8,No
2017/09/20,13:50,0.342,0.215,0.345,0.326,0.315,0.173,0.103,south-southwest,7.9,No
2017/09/20,14:00,0.342,0.212,0.350,0.325,0.313,0.173,0.103,south-southwest,8.4,No
2017/09/20,14:10,0.346,0.211,0.348,0.329,0.317,0.173,0.103,south-southwest,8.1,No
2017/09/20,14:20,0.344,0.214,0.347,0.327,0.319,0.173,0.103,south-southwest,8.1,No
2017/09/20,14:30,0.341,0.214,0.349,0.325,0.315,0.172,0.103,south,7.6,No
2017/09/20,14:40,0.342,0.212,0.351,0.329,0.315,0.174,0.103,south-southwest,7.0,No
2017/09/20,14:50,0.344,0.213,0.345,0.330,0.318,0.172,0.103,south-southwest,6.8,No
2017/09/20,15:00,0.341,0.214,0.348,0.327,0.316,0.171,0.102,south-southwest,6.6,No
2017/09/20,15:10,0.344,0.214,0.350,0.327,0.314,0.173,0.102,south-southwest,5.9,No
2017/09/20,15:20,0.346,0.212,0.345,0.329,0.317,0.173,0.103,south-southwest,6.2,No
2017/09/20,15:30,0.342,0.214,0.349,0.327,0.316,0.172,0.103,south-southwest,7.0,No
2017/09/20,15:40,0.342,0.212,0.351,0.325,0.315,0.172,0.102,south-southwest,6.7,No
2017/09/20,15:50,0.345,0.213,0.348,0.330,0.318,0.172,0.103,south-southwest,7.5,No
2017/09/20,16:00,0.343,0.213,0.349,0.326,0.315,0.171,0.104,south-southwest,6.3,No
2017/09/20,16:10,0.341,0.213,0.350,0.326,0.312,0.173,0.102,south-southwest,7.1,No
2017/09/20,16:20,0.346,0.214,0.345,0.330,0.319,0.173,0.103,south-southwest,7.6,No
2017/09/20,16:30,0.341,0.214,0.349,0.328,0.316,0.172,0.103,south-southwest,8.3,No
2017/09/20,16:40,0.344,0.213,0.349,0.327,0.316,0.173,0.102,south-southwest,8.1,No
2017/09/20,16:50,0.344,0.213,0.347,0.330,0.318,0.173,0.103,south-southwest,6.8,No
2017/09/20,17:00,0.341,0.213,0.351,0.327,0.316,0.172,0.103,southwest,5.3,No
2017/09/20,17:10,0.345,0.214,0.349,0.328,0.315,0.173,0.103,southwest,4.4,No
2017/09/20,17:20,0.344,0.214,0.346,0.329,0.318,0.173,0.105,southwest,4.4,No
2017/09/20,17:30,0.342,0.213,0.349,0.326,0.314,0.172,0.103,southwest,4.5,No
2017/09/20,17:40,0.345,0.215,0.348,0.327,0.317,0.173,0.104,south-southwest,5.2,No
2017/09/20,17:50,0.343,0.213,0.348,0.329,0.318,0.173,0.104,south-southwest,5.6,No
2017/09/20,18:00,0.343,0.215,0.349,0.327,0.314,0.174,0.103,southwest,4.6,No
2017/09/20,18:10,0.346,0.214,0.347,0.329,0.318,0.173,0.104,southwest,4.7,No
2017/09/20,18:20,0.342,0.214,0.351,0.327,0.317,0.172,0.103,southwest,3.3,No
2017/09/20,18:30,0.345,0.213,0.349,0.330,0.316,0.174,0.104,southwest,4.6,No
2017/09/20,18:40,0.343,0.214,0.347,0.328,0.318,0.173,0.103,southwest,5.1,No
2017/09/20,18:50,0.343,0.215,0.351,0.325,0.315,0.174,0.104,southwest,5.8,No
2017/09/20,19:00,0.344,0.213,0.346,0.331,0.316,0.173,0.105,southwest,5.7,No
2017/09/20,19:10,0.342,0.214,0.349,0.328,0.317,0.173,0.104,west-southwest,3.3,No
2017/09/20,19:20,0.345,0.214,0.351,0.330,0.314,0.174,0.104,southwest,3.9,No
2017/09/20,19:30,0.343,0.214,0.348,0.330,0.318,0.172,0.104,southwest,3.5,No
2017/09/20,19:40,0.341,0.214,0.350,0.328,0.316,0.173,0.103,west,2.0,No
2017/09/20,19:50,0.346,0.214,0.347,0.330,0.316,0.173,0.104,north-northwest,3.4,No
2017/09/20,20:00,0.341,0.215,0.348,0.328,0.318,0.173,0.104,north,2.8,No
2017/09/20,20:10,0.343,0.213,0.352,0.328,0.314,0.174,0.104,east-southeast,1.4,No
2017/09/20,20:20,0.344,0.215,0.349,0.330,0.316,0.174,0.106,north-northwest,0.7,No
2017/09/20,20:30,0.342,0.213,0.350,0.325,0.317,0.174,0.103,northwest,3.7,No
2017/09/20,20:40,0.346,0.215,0.350,0.330,0.314,0.172,0.104,north-northwest,5.6,No
2017/09/20,20:50,0.343,0.214,0.349,0.329,0.319,0.172,0.104,northwest,3.3,No
2017/09/20,21:00,0.342,0.214,0.350,0.327,0.317,0.174,0.104,north-northwest,4.1,No
2017/09/20,21:10,0.345,0.214,0.347,0.330,0.315,0.173,0.104,northwest,4.8,No
2017/09/20,21:20,0.342,0.214,0.350,0.326,0.320,0.174,0.104,west-northwest,5.9,No
2017/09/20,21:30,0.343,0.215,0.351,0.330,0.315,0.174,0.104,west-northwest,12.4,No
2017/09/20,21:40,0.344,0.214,0.347,0.330,0.316,0.172,0.104,west-northwest,9.9,No
2017/09/20,21:50,0.342,0.214,0.351,0.326,0.318,0.174,0.103,west-northwest,12.4,No
2017/09/20,22:00,0.345,0.215,0.349,0.330,0.313,0.173,0.105,west-northwest,10.9,No
2017/09/20,22:10,0.343,0.212,0.348,0.329,0.318,0.173,0.104,west-northwest,11.1,No
2017/09/20,22:20,0.342,0.215,0.350,0.326,0.316,0.174,0.104,west-northwest,13.5,No
2017/09/20,22:30,0.344,0.213,0.346,0.329,0.315,0.172,0.103,west-northwest,11.8,No
2017/09/20,22:40,0.344,0.213,0.351,0.326,0.318,0.174,0.103,west,10.2,No
2017/09/20,22:50,0.341,0.215,0.351,0.329,0.314,0.173,0.103,west,8.1,No
2017/09/20,23:00,0.346,0.213,0.348,0.328,0.319,0.172,0.104,west,6.6,No
2017/09/20,23:10,0.344,0.214,0.352,0.327,0.317,0.175,0.104,west,7.3,No
2017/09/20,23:20,0.345,0.215,0.349,0.330,0.315,0.173,0.104,west-southwest,8.9,No
2017/09/20,23:30,0.347,0.215,0.351,0.327,0.318,0.173,0.104,west,10.3,No
2017/09/20,23:40,0.343,0.215,0.350,0.329,0.315,0.173,0.104,west,4.9,No
2017/09/20,23:50,0.344,0.213,0.348,0.329,0.320,0.172,0.104,west,4.0,No
